OPS 4682 DEB, 26731

Orbit data source: Space-Track

OPS 4682 DEB, 26731 is space debris in LEO originally from a launch on Sat, 03 Apr 1965 UTC launched from the Air Force Western Test Range (AFWTR). Debris objects in space refer to the collection of defunct objects orbiting the Earth. Examples of debris include non-operational satellites, rocket bodies, and fragments generated from explosions, collisions, or faulty payload assembly.

Loading next visibility...
Identifier
26731, 1965-027BE
Orbit
LEO
Country
Flag of USUS
Related business
Manufacturer
Unknown
Mission
Spacecraft
Bus & Motor
Unknown
Mass
Unknown
Launch date (UTC)
1965-04-03 (61 years ago)
Launch vehicle
Unknown
Launch site
Air Force Western Test Range (AFWTR)
Object type
Payload
Rocket body
Debris
Shape & HBR
Unknown shape, 0.1 m
Radar Cross Section
Small (<0.1 m²)

Expand to show TLE details & history
Last TLE update: 6 days ago

TLE from 6 days ago
0 OPS 4682 DEB
1 26731U 65027BE  25288.00969102 -.00000229  00000-0 -84055-3 0  9991
2 26731  90.2578   8.7169 0024632 143.1141  30.8374 12.95227636530102
Epoch: 2025-10-15T00:13Z
TLE epoch observation values (Epoch: 2025-10-15T00:13:57.304Z)
Latitude
5.8253°
Longitude
161.46439°
Altitude
1,266.964 km
Speed
7.23 km/s
True Right ascension
12h 34m 58s
True Declination
5° 47' 35"
Sunlit
Object was in daylight at epoch
Visualization orbit readout
Latitude
Unknown
Longitude
Unknown
Altitude
Unknown
Speed
Unknown
Apparent Right ascension
Unknown
Apparent Declination
Unknown
Sunlit
N/A
Visualization observer readout
Local Sidereal Time
11:36:06
Azimuth
Unknown
Elevation
Unknown
Doppler factor
Unknown
Orbital elements
Apogee altitude
1,296.835 km
Perigee altitude
1,259.118 km
Semi-major axis
7,656.114 km
Eccentricity
0.00246
Inclination
90.2578°
RAAN
8.7169°
Arg. of periapsis
143.1141°
True anomaly
30.98247°
Mean anomaly
30.8374°
Eccentric anomaly
30.9099°
Mean motion
3.23989 °/min
Orbital period
111.11 mins
BSTAR
-0.00084055
Loading maneuver chart data...
Computing Atmospheric mass density...
Loading historical data...
Loading historical data...
Loading historical data...
Loading historical data...
Loading historical data...
Loading historical data...
Loading historical data...

Documentation

Showing up to 5 results
|